Погода в Новостроеве

Россия / Калининградская область     54°26′34″N   21°49′56″E
темп.,
°C
ветер,
м/с
пор.,
м/с
влажн.,
%
обл.,
%
осадки,
мм/ч
давл.,
гПа
погр.,
м
24 октября, вс
вс2423:00+6сз497696 0.4 1023611
02:00+5зсз3879100 0.6 1025418
05:00+5зсз3878100 0.1 1027319
08:00+5з367866 0.1 1028224
11:00+8з3564100 0.0 1030773
14:00+9з3459100 0.0 10301003
17:00+6юз3575100 0.0 102993
20:00+4ююз3582100 0.0 102979
25 октября, пн
пн2523:00+4ююз388873 0.0 1029158
02:00+3ююз4109212 0.0 1028206
05:00+3ю411915 0.0 1028245
08:00+3ю512835 0.0 1026285
11:00+8ю6126050 0.0 1025459
14:00+11ю611515 0.0 1023655
17:00+9ю5135757 0.0 1022481
20:00+7ю61561100 0.0 1021439
26 октября, вт
вт2623:00+7ююз51364100 0.0 1020319
02:00+5ююз41170100 0.0 1020240
05:00+4ююз41076100 0.0 1019207
08:00+4ююз3981100 0.0 1019193
11:00+9юз4866100 0.0 1019333
14:00+11юз5764100 0.0 1018611
17:00+10юз4971100 0.0 1018418
20:00+9зюз41078100 0.2 1019494
27 октября, ср
ср2723:00+8зюз4108733 0.6 1019483
02:00+7зюз411955 0.6 1019348
05:00+6зюз4119433 0.0 1020285
08:00+5юз399531 0.0 1021213
11:00+10зюз587879 0.0 1021464
14:00+12зюз5865100 0.0 1021926
17:00+10зюз51078100 0.0 1021571
20:00+10зюз51286100 0.0 1021551
28 октября, чт
чт2823:00+11зюз51288100 0.0 1022542
02:00+11зюз41189100 0.0 1022568
05:00+11зюз41088100 0.0 1023577
08:00+11юз4984100 0.0 1023489
11:00+12зюз5982100 0.0 1024749
14:00+14зюз5976100 0.0 1024719
17:00+12з4985100 0.0 1024387
20:00+10зюз3694100 0.0 1025140